WZZ95PF EPGD-EDDH

Flight info

Callsign WZZ95PF
Flight time 1h 0m
Altitude 38000
Route DEXIR T671 AGODU DCT PESEL DCT VIBIS L619 BUMIL M748 RARUP RARUP6A
Aircraft A21N/M-SDE2E3FGHIJ1RWXY/LB1

Departure

Time 2026-05-06 09:41
Airport Gdańsk Lech Wałęsa Airport (EPGD)

Arrival

Time 2026-05-06 10:42
Airport Hamburg Helmut Schmidt Airport (EDDH)
Time Latitude Longitude Altitude Speed Heading
2026-05-06 09:09 54.38142 18.46500 465 ft 0 kts 23°
2026-05-06 09:26 54.38141 18.46500 465 ft 2 kts 23°
2026-05-06 09:26 54.38119 18.46490 465 ft 4 kts 355°
2026-05-06 09:27 54.38097 18.46506 462 ft 4 kts 310°
2026-05-06 09:27 54.38089 18.46527 465 ft 1 kts 293°
2026-05-06 09:31 54.38091 18.46515 465 ft 3 kts 293°
2026-05-06 09:31 54.38105 18.46460 462 ft 6 kts 293°
2026-05-06 09:31 54.38125 18.46380 465 ft 8 kts 293°
2026-05-06 09:32 54.38151 18.46277 465 ft 11 kts 293°
2026-05-06 09:32 54.38178 18.46148 465 ft 13 kts 267°
2026-05-06 09:32 54.38113 18.46064 465 ft 11 kts 208°
2026-05-06 09:32 54.38108 18.45933 464 ft 13 kts 292°
2026-05-06 09:33 54.38144 18.45781 460 ft 14 kts 292°
2026-05-06 09:33 54.38126 18.45643 460 ft 14 kts 211°
2026-05-06 09:33 54.38047 18.45581 458 ft 7 kts 213°
2026-05-06 09:33 54.38012 18.45593 461 ft 8 kts 116°
2026-05-06 09:34 54.37944 18.45866 461 ft 51 kts 112°
2026-05-06 09:34 54.37843 18.46275 462 ft 19 kts 114°
2026-05-06 09:34 54.37804 18.46496 461 ft 20 kts 97°
2026-05-06 09:34 54.37804 18.46742 463 ft 21 kts 86°
2026-05-06 09:35 54.37831 18.46898 465 ft 13 kts 24°
2026-05-06 09:35 54.37895 18.46789 462 ft 15 kts 294°
2026-05-06 09:35 54.37940 18.46613 462 ft 17 kts 293°
2026-05-06 09:35 54.37987 18.46419 464 ft 18 kts 291°
2026-05-06 09:36 54.38036 18.46212 465 ft 20 kts 295°
2026-05-06 09:36 54.38089 18.46009 465 ft 19 kts 293°
2026-05-06 09:36 54.38138 18.45803 459 ft 13 kts 291°
2026-05-06 09:36 54.38136 18.45659 460 ft 11 kts 223°
2026-05-06 09:37 54.38114 18.45639 460 ft 0 kts 205°
2026-05-06 09:39 54.38111 18.45637 460 ft 2 kts 205°
2026-05-06 09:39 54.38090 18.45620 460 ft 5 kts 205°
2026-05-06 09:40 54.38054 18.45589 460 ft 5 kts 210°
2026-05-06 09:40 54.38017 18.45606 461 ft 8 kts 131°
2026-05-06 09:40 54.37788 18.46497 462 ft 110 kts 112°
2026-05-06 09:41 54.37406 18.48011 691 ft 149 kts 110°
2026-05-06 09:41 54.36952 18.49592 1572 ft 147 kts 109°
2026-05-06 09:41 54.36531 18.51232 2261 ft 157 kts 106°
2026-05-06 09:41 54.36131 18.53088 2830 ft 178 kts 110°
2026-05-06 09:42 54.35628 18.55162 3333 ft 201 kts 111°
2026-05-06 09:42 54.35064 18.57439 4116 ft 213 kts 112°
2026-05-06 09:42 54.34478 18.59802 5083 ft 216 kts 114°
2026-05-06 09:42 54.33882 18.62184 6073 ft 219 kts 117°
2026-05-06 09:43 54.33042 18.64355 6907 ft 222 kts 137°
2026-05-06 09:43 54.31710 18.65690 7740 ft 225 kts 164°
2026-05-06 09:43 54.30140 18.65824 8557 ft 233 kts 190°
2026-05-06 09:43 54.28593 18.64876 9437 ft 239 kts 202°
2026-05-06 09:44 54.27094 18.63654 10384 ft 240 kts 207°
2026-05-06 09:44 54.25795 18.61888 11227 ft 246 kts 229°
2026-05-06 09:44 54.25002 18.59225 11857 ft 267 kts 253°
2026-05-06 09:44 54.24927 18.55876 12198 ft 297 kts 270°
2026-05-06 09:45 54.25126 18.52213 12512 ft 322 kts 271°
2026-05-06 09:45 54.25336 18.48288 12957 ft 339 kts 271°
2026-05-06 09:45 54.25524 18.44227 13741 ft 345 kts 270°
2026-05-06 09:45 54.25691 18.40112 14543 ft 349 kts 270°
2026-05-06 09:46 54.25849 18.36004 15330 ft 352 kts 270°
2026-05-06 09:46 54.26002 18.31813 16095 ft 355 kts 270°
2026-05-06 09:46 54.26156 18.27569 16852 ft 359 kts 270°
2026-05-06 09:46 54.26307 18.23295 17573 ft 363 kts 270°
2026-05-06 09:47 54.26435 18.18959 18247 ft 366 kts 267°
2026-05-06 09:47 54.26299 18.14613 18838 ft 368 kts 262°
2026-05-06 09:47 54.26067 18.10245 19433 ft 371 kts 262°
2026-05-06 09:47 54.25824 18.05822 20003 ft 375 kts 262°
2026-05-06 09:48 54.25584 18.01420 20549 ft 378 kts 262°
2026-05-06 09:48 54.25340 17.96936 21093 ft 381 kts 262°
2026-05-06 09:48 54.25093 17.92401 21620 ft 384 kts 261°
2026-05-06 09:48 54.24844 17.87839 22116 ft 387 kts 261°
2026-05-06 09:49 54.24589 17.83239 22596 ft 390 kts 261°
2026-05-06 09:49 54.24332 17.78611 23057 ft 393 kts 261°
2026-05-06 09:49 54.24072 17.73947 23487 ft 395 kts 261°
2026-05-06 09:49 54.23807 17.69248 23837 ft 399 kts 261°
2026-05-06 09:50 54.23543 17.64581 24174 ft 401 kts 261°
2026-05-06 09:50 54.23271 17.59822 24490 ft 403 kts 261°
2026-05-06 09:50 54.22996 17.55037 24797 ft 406 kts 261°
2026-05-06 09:50 54.22715 17.50217 25098 ft 409 kts 260°
2026-05-06 09:51 54.22255 17.45433 25418 ft 407 kts 252°
2026-05-06 09:51 54.21291 17.40908 25706 ft 405 kts 242°
2026-05-06 09:51 54.20040 17.36577 25997 ft 406 kts 240°
2026-05-06 09:51 54.18750 17.32273 26271 ft 409 kts 239°
2026-05-06 09:52 54.17456 17.27938 26543 ft 411 kts 240°
2026-05-06 09:52 54.16182 17.23631 26804 ft 413 kts 240°
2026-05-06 09:52 54.14888 17.19251 27064 ft 415 kts 240°
2026-05-06 09:52 54.13585 17.14845 27321 ft 417 kts 240°
2026-05-06 09:53 54.12274 17.10412 27589 ft 419 kts 240°
2026-05-06 09:53 54.10955 17.05972 27866 ft 421 kts 239°
2026-05-06 09:53 54.09717 17.01406 28091 ft 428 kts 245°
2026-05-06 09:53 54.08808 16.96537 28215 ft 435 kts 250°
2026-05-06 09:54 54.07175 16.86545 28416 ft 446 kts 251°
2026-05-06 09:54 54.06332 16.81434 28564 ft 450 kts 250°
2026-05-06 09:54 54.05476 16.76310 28816 ft 451 kts 250°
2026-05-06 09:55 54.04616 16.71188 29110 ft 450 kts 250°
2026-05-06 09:55 54.04043 16.67796 29309 ft 449 kts 250°
2026-05-06 09:55 54.02886 16.60970 29688 ft 449 kts 250°
2026-05-06 09:55 54.02315 16.57594 29844 ft 449 kts 250°
2026-05-06 09:56 54.01451 16.52495 30071 ft 448 kts 250°
2026-05-06 09:56 54.00307 16.45770 30362 ft 447 kts 250°
2026-05-06 09:56 53.99442 16.40707 30600 ft 446 kts 250°
2026-05-06 09:56 53.98574 16.35643 30838 ft 446 kts 250°
2026-05-06 09:57 53.97705 16.30590 31085 ft 445 kts 250°
2026-05-06 09:57 53.97129 16.27247 31244 ft 444 kts 250°
2026-05-06 09:57 53.96261 16.22221 31477 ft 444 kts 250°
2026-05-06 09:57 53.95391 16.17201 31703 ft 443 kts 250°
2026-05-06 09:58 53.94500 16.12196 31931 ft 442 kts 248°
2026-05-06 09:58 53.93423 16.07331 32148 ft 440 kts 245°
2026-05-06 09:58 53.92296 16.02504 32354 ft 439 kts 244°
2026-05-06 09:58 53.91168 15.97708 32540 ft 438 kts 244°
2026-05-06 09:59 53.90034 15.92908 32732 ft 437 kts 244°
2026-05-06 09:59 53.88917 15.88201 32899 ft 437 kts 244°
2026-05-06 09:59 53.87781 15.83417 33077 ft 436 kts 244°
2026-05-06 09:59 53.86649 15.78659 33235 ft 436 kts 244°
2026-05-06 10:00 53.85514 15.73908 33381 ft 435 kts 244°
2026-05-06 10:00 53.84382 15.69147 33550 ft 435 kts 244°
2026-05-06 10:00 53.82885 15.62860 33779 ft 435 kts 244°
2026-05-06 10:00 53.82116 15.59652 33874 ft 435 kts 244°
2026-05-06 10:01 53.80976 15.54904 33997 ft 435 kts 244°
2026-05-06 10:01 53.79855 15.50239 34105 ft 434 kts 244°
2026-05-06 10:01 53.78716 15.45517 34241 ft 434 kts 244°
2026-05-06 10:01 53.77575 15.40798 34351 ft 434 kts 244°
2026-05-06 10:02 53.76432 15.36075 34470 ft 434 kts 244°
2026-05-06 10:02 53.75291 15.31367 34610 ft 432 kts 244°
2026-05-06 10:02 53.74151 15.26676 34782 ft 430 kts 244°
2026-05-06 10:02 53.73017 15.22022 34985 ft 427 kts 245°
2026-05-06 10:03 53.71906 15.17474 35195 ft 423 kts 245°
2026-05-06 10:03 53.70785 15.12893 35410 ft 419 kts 245°
2026-05-06 10:03 53.69681 15.08376 35634 ft 414 kts 245°
2026-05-06 10:03 53.68588 15.03920 35842 ft 410 kts 245°
2026-05-06 10:04 53.67501 14.99503 36067 ft 406 kts 245°
2026-05-06 10:04 53.66423 14.95129 36284 ft 401 kts 245°
2026-05-06 10:04 53.65358 14.90821 36510 ft 396 kts 245°
2026-05-06 10:04 53.64301 14.86550 36733 ft 392 kts 245°
2026-05-06 10:05 53.63258 14.82349 36944 ft 387 kts 245°
2026-05-06 10:05 53.62223 14.78180 37069 ft 384 kts 245°
2026-05-06 10:05 53.61195 14.74047 37185 ft 381 kts 245°
2026-05-06 10:05 53.60187 14.70011 37302 ft 377 kts 245°
2026-05-06 10:06 53.59176 14.65966 37420 ft 374 kts 245°
2026-05-06 10:06 53.58208 14.61925 37518 ft 371 kts 250°
2026-05-06 10:06 53.57067 14.53479 37580 ft 369 kts 256°
2026-05-06 10:07 53.56073 14.45067 37633 ft 364 kts 255°
2026-05-06 10:07 53.55054 14.36844 37727 ft 358 kts 255°
2026-05-06 10:08 53.54023 14.28669 37714 ft 358 kts 255°
2026-05-06 10:08 53.52980 14.20499 37700 ft 357 kts 255°
2026-05-06 10:09 53.51937 14.12387 37697 ft 354 kts 255°
2026-05-06 10:09 53.50886 14.04318 37602 ft 355 kts 255°
2026-05-06 10:10 53.49857 13.96274 37693 ft 348 kts 256°
2026-05-06 10:10 53.48904 13.88295 37321 ft 353 kts 256°
2026-05-06 10:11 53.48427 13.84219 37071 ft 358 kts 256°
2026-05-06 10:11 53.47943 13.80090 36841 ft 364 kts 256°
2026-05-06 10:11 53.47452 13.75915 36392 ft 364 kts 256°
2026-05-06 10:11 53.46961 13.71758 35943 ft 365 kts 256°
2026-05-06 10:12 53.46358 13.67561 35617 ft 374 kts 253°
2026-05-06 10:12 53.45686 13.63284 35355 ft 384 kts 253°
2026-05-06 10:12 53.45037 13.58889 35120 ft 393 kts 254°
2026-05-06 10:12 53.44408 13.54374 34884 ft 402 kts 255°
2026-05-06 10:13 53.43789 13.49810 34662 ft 411 kts 255°
2026-05-06 10:13 53.43152 13.45079 34441 ft 421 kts 255°
2026-05-06 10:13 53.42503 13.40244 34222 ft 429 kts 255°
2026-05-06 10:13 53.41847 13.35351 33998 ft 430 kts 255°
2026-05-06 10:14 53.41188 13.30457 33753 ft 430 kts 255°
2026-05-06 10:14 53.40529 13.25586 33477 ft 428 kts 255°
2026-05-06 10:14 53.39864 13.20733 33203 ft 428 kts 255°
2026-05-06 10:14 53.39195 13.15867 32922 ft 427 kts 255°
2026-05-06 10:15 53.38532 13.11033 32643 ft 426 kts 256°
2026-05-06 10:15 53.37868 13.06207 32383 ft 425 kts 256°
2026-05-06 10:15 53.37212 13.01445 32122 ft 425 kts 256°
2026-05-06 10:15 53.36546 12.96621 31855 ft 425 kts 256°
2026-05-06 10:16 53.36023 12.91747 31589 ft 427 kts 265°
2026-05-06 10:16 53.36027 12.86779 31343 ft 428 kts 270°
2026-05-06 10:16 53.36148 12.81795 31092 ft 429 kts 271°
2026-05-06 10:16 53.36264 12.76809 30834 ft 429 kts 271°
2026-05-06 10:17 53.36362 12.71818 30586 ft 430 kts 270°
2026-05-06 10:17 53.36447 12.66815 30344 ft 431 kts 270°
2026-05-06 10:17 53.36524 12.61794 30095 ft 432 kts 270°
2026-05-06 10:17 53.36598 12.56773 29850 ft 432 kts 270°
2026-05-06 10:18 53.36668 12.51806 29569 ft 433 kts 270°
2026-05-06 10:18 53.36737 12.46743 29281 ft 435 kts 270°
2026-05-06 10:18 53.36803 12.41674 29001 ft 436 kts 270°
2026-05-06 10:18 53.36869 12.36596 28725 ft 436 kts 270°
2026-05-06 10:19 53.36932 12.31521 28406 ft 433 kts 270°
2026-05-06 10:19 53.36995 12.26512 28005 ft 430 kts 270°
2026-05-06 10:19 53.37052 12.21503 27690 ft 429 kts 270°
2026-05-06 10:19 53.37106 12.16523 27409 ft 426 kts 270°
2026-05-06 10:20 53.37158 12.11648 27142 ft 425 kts 270°
2026-05-06 10:20 53.37210 12.06704 26881 ft 423 kts 270°
2026-05-06 10:20 53.37260 12.01796 26624 ft 422 kts 270°
2026-05-06 10:20 53.37308 11.96901 26367 ft 420 kts 270°
2026-05-06 10:21 53.37355 11.92019 26111 ft 418 kts 270°
2026-05-06 10:21 53.37398 11.87153 25855 ft 417 kts 270°
2026-05-06 10:21 53.37439 11.82316 25605 ft 415 kts 270°
2026-05-06 10:21 53.37480 11.77483 25353 ft 414 kts 270°
2026-05-06 10:22 53.37518 11.72681 25109 ft 412 kts 269°
2026-05-06 10:22 53.37550 11.67880 24873 ft 411 kts 269°
2026-05-06 10:22 53.37581 11.63112 24637 ft 410 kts 269°
2026-05-06 10:22 53.37615 11.58355 24395 ft 408 kts 270°
2026-05-06 10:23 53.37647 11.53671 24161 ft 407 kts 269°
2026-05-06 10:23 53.37672 11.48947 23927 ft 405 kts 269°
2026-05-06 10:23 53.37699 11.44232 23695 ft 404 kts 269°
2026-05-06 10:23 53.37723 11.39536 23459 ft 403 kts 269°
2026-05-06 10:24 53.37744 11.34853 23187 ft 401 kts 269°
2026-05-06 10:24 53.37760 11.30188 22907 ft 400 kts 269°
2026-05-06 10:24 53.37774 11.25534 22638 ft 399 kts 269°
2026-05-06 10:24 53.37786 11.20905 22366 ft 397 kts 269°
2026-05-06 10:25 53.37801 11.16298 21945 ft 391 kts 269°
2026-05-06 10:25 53.37816 11.11832 21326 ft 377 kts 269°
2026-05-06 10:25 53.37828 11.07510 20712 ft 364 kts 269°
2026-05-06 10:25 53.37833 11.03351 20154 ft 362 kts 269°
2026-05-06 10:26 53.37841 10.99156 19612 ft 359 kts 269°
2026-05-06 10:26 53.37845 10.94984 19079 ft 357 kts 269°
2026-05-06 10:26 53.37845 10.90850 18566 ft 355 kts 269°
2026-05-06 10:26 53.37841 10.86731 18079 ft 352 kts 269°
2026-05-06 10:27 53.37838 10.82642 17537 ft 349 kts 269°
2026-05-06 10:27 53.37835 10.78583 17004 ft 347 kts 269°
2026-05-06 10:27 53.37834 10.74559 16496 ft 345 kts 269°
2026-05-06 10:27 53.37834 10.70557 16004 ft 342 kts 269°
2026-05-06 10:28 53.37833 10.66581 15525 ft 341 kts 269°
2026-05-06 10:28 53.37827 10.62680 15060 ft 339 kts 268°
2026-05-06 10:28 53.37816 10.58742 14611 ft 345 kts 269°
2026-05-06 10:28 53.37804 10.54632 14257 ft 354 kts 269°
2026-05-06 10:29 53.37793 10.50498 13869 ft 355 kts 269°
2026-05-06 10:29 53.37782 10.46460 13230 ft 339 kts 269°
2026-05-06 10:29 53.37771 10.42548 12223 ft 335 kts 269°
2026-05-06 10:29 53.37757 10.38676 11329 ft 330 kts 269°
2026-05-06 10:30 53.37741 10.34838 10984 ft 330 kts 269°
2026-05-06 10:30 53.37724 10.31143 10929 ft 302 kts 269°
2026-05-06 10:30 53.37709 10.27781 10935 ft 289 kts 269°
2026-05-06 10:30 53.37694 10.24417 10967 ft 289 kts 269°
2026-05-06 10:31 53.37677 10.21055 10952 ft 288 kts 269°
2026-05-06 10:31 53.37658 10.17688 10895 ft 289 kts 269°
2026-05-06 10:31 53.37638 10.14332 10866 ft 289 kts 269°
2026-05-06 10:31 53.37621 10.10963 10858 ft 288 kts 269°
2026-05-06 10:32 53.37604 10.07606 10853 ft 290 kts 269°
2026-05-06 10:32 53.37586 10.04245 10862 ft 288 kts 269°
2026-05-06 10:32 53.37569 10.00892 10850 ft 288 kts 269°
2026-05-06 10:32 53.37551 9.97564 10788 ft 279 kts 269°
2026-05-06 10:33 53.37534 9.94337 10068 ft 277 kts 269°
2026-05-06 10:33 53.37513 9.91099 9245 ft 279 kts 269°
2026-05-06 10:33 53.37489 9.87854 8558 ft 275 kts 269°
2026-05-06 10:33 53.37463 9.84779 8193 ft 261 kts 269°
2026-05-06 10:34 53.37439 9.81793 7709 ft 254 kts 269°
2026-05-06 10:34 53.37752 9.78915 7082 ft 253 kts 294°
2026-05-06 10:34 53.38791 9.76567 6442 ft 253 kts 321°
2026-05-06 10:34 53.40272 9.74996 5820 ft 251 kts 332°
2026-05-06 10:35 53.41812 9.73654 5173 ft 248 kts 334°
2026-05-06 10:35 53.43334 9.72338 4521 ft 244 kts 334°
2026-05-06 10:35 53.44859 9.71129 3823 ft 240 kts 342°
2026-05-06 10:35 53.46467 9.70610 3286 ft 234 kts
2026-05-06 10:36 53.48022 9.70985 3076 ft 219 kts 13°
2026-05-06 10:36 53.49380 9.71867 3013 ft 209 kts 35°
2026-05-06 10:36 53.50476 9.73409 3019 ft 197 kts 47°
2026-05-06 10:36 53.51299 9.75104 3062 ft 187 kts 54°
2026-05-06 10:37 53.52127 9.76794 3052 ft 187 kts 52°
2026-05-06 10:37 53.52937 9.78432 2864 ft 175 kts 51°
2026-05-06 10:37 53.53687 9.79947 2630 ft 162 kts 51°
2026-05-06 10:37 53.54375 9.81334 2422 ft 147 kts 51°
2026-05-06 10:38 53.55009 9.82612 2229 ft 138 kts 52°
2026-05-06 10:38 53.55591 9.83786 2054 ft 123 kts 51°
2026-05-06 10:38 53.56136 9.84884 1878 ft 122 kts 50°
2026-05-06 10:38 53.56671 9.85966 1721 ft 122 kts 51°
2026-05-06 10:39 53.57213 9.87058 1545 ft 122 kts 50°
2026-05-06 10:39 53.57753 9.88149 1376 ft 121 kts 50°
2026-05-06 10:39 53.58295 9.89227 1214 ft 120 kts 50°
2026-05-06 10:39 53.58836 9.90305 1048 ft 121 kts 50°
2026-05-06 10:40 53.59364 9.91395 853 ft 120 kts 50°
2026-05-06 10:40 53.59895 9.92492 731 ft 122 kts 49°
2026-05-06 10:40 53.60447 9.93580 567 ft 122 kts 49°
2026-05-06 10:40 53.60993 9.94678 378 ft 124 kts 49°
2026-05-06 10:41 53.61540 9.95785 229 ft 122 kts 50°
2026-05-06 10:41 53.62077 9.96886 57 ft 120 kts 49°
2026-05-06 10:41 53.62546 9.97829 46 ft 80 kts 50°
2026-05-06 10:41 53.62861 9.98467 49 ft 66 kts 50°
2026-05-06 10:42 53.63048 9.98845 51 ft 26 kts 55°
2026-05-06 10:42 53.63090 9.99146 52 ft 27 kts 94°
2026-05-06 10:42 53.63094 9.99377 52 ft 19 kts 66°
2026-05-06 10:42 53.63173 9.99567 52 ft 21 kts 52°
2026-05-06 10:43 53.63232 9.99725 54 ft 14 kts 91°
2026-05-06 10:43 53.63152 9.99824 54 ft 16 kts 153°
2026-05-06 10:43 53.63046 9.99916 54 ft 18 kts 153°
2026-05-06 10:44 53.62836 10.00079 54 ft 17 kts 152°
2026-05-06 10:44 53.62741 10.00161 54 ft 8 kts 153°
2026-05-06 10:44 53.62711 10.00209 54 ft 7 kts 89°
2026-05-06 10:44 53.62728 10.00274 54 ft 4 kts 62°
2026-05-06 10:45 53.62736 10.00300 54 ft 1 kts 62°
2026-05-06 10:45 53.62738 10.00305 54 ft 0 kts 62°